{"data":{"norad_id":56515,"epoch":"2026-05-24T11:51:36.648288Z","epoch_age_seconds":112516,"freshness":"FRESH","line1":"1 56515U 23065N   26144.49417417 -.00000146  00000+0  42249-5 0  9999","line2":"2 56515  43.0015 144.3256 0001031 276.6646  83.4089 15.27576148168197","mean_motion":15.27576148,"eccentricity":0.0001031,"inclination_deg":43.0015,"raan_deg":144.3256,"arg_perigee_deg":276.6646,"mean_anomaly_deg":83.4089,"bstar":4.2249e-6,"rev_number":16819,"period_min":94.266986420634,"perigee_km":482.35324086195,"apogee_km":483.76801981333,"semimajor_km":6861.1976303376,"source":"CELESTRAK","updated_at":"2026-05-25T13:38:18.106750Z"}}